SCP
0 0 0 0 0 0 0 0 0 0 0 0 0 0 0 0 0 0 0 0 0 0 0 0 0 0 0 0 0 0 0 0
0 0 0 0 0 0 0 0 0 0 0 0 0 0 0 0 0 0 0 0 0 0 0 0 0 0 0 0 0 0 0 0
0 0 0 0 0 0 0 0 0 0 0 0 0 0 0 0 0 0 0 0 0 0 0 0 0 0 0 0 0 0 0 0
0 0 0 0 0 0 0 0 0 0 0 0 0 0 0 0 0 0 0 0 0 0 0 0 0 0 0 0 0 0 0 0
0 0 0 0 0 0 0 0 0 0 0 0 0 0 0 0 0 0 0 0 0 0 0 0 0 0 0 0 0 0 0 0
0 0 0 0 0 0 0 0 0 0 0 0 0 0 0 0 0 0 0 0 0 0 0 0 0 0 0 0 0 0 0 0
0 0 0 0 0 0 0 0 0 0 0 0 0 0 0 0 0 0 0 0 0 0 0 0 0 0 0 0 0 0 0 0
0 0 0 0 0 0 0 0 0 0 0 0 0 0 0 0 0 0 0 0 0 0 0 0 0 0 0 0 0 0 0 0
0 0 0 0 0 0 0 0 0 0 0 0 0 0 0 0 0 0 0 0 0 0 0 0 0 0 0 0 0 0 0 0
0 0 0 0 0 0 0 0 0 0 0 0 0 0 0 0 0 0 0 0 0 0 0 0 0 0 0 0 0 0 0 0
0 0 0 0 0 0 0 0 0 0 0 0 0 0 0 0 0 0 0 0 0 0 0 0 0 0 0 0 0 0 0 0
0 0 0 0 0 0 0 0 0 0 0 0 0 0 0 0 0 0 0 0 0 0 0 0 0 0 0 0 0 -0 0 0
0 0 0 0 0 0 0 0 0 0 0 0 0 0 0 0 0 0 0 0 0 0 0 0 0 0 0 0 -0 0 0 0
0 0 0 0 0 0 0 0 0 0 0 0 0 0 0 0 0 0 0 0 0 0 0 0 0 0 0 -0 0 0 0 0
0 0 0 0 0 0 0 0 0 0 0 0 0 0 0 0 0 0 0 0 0 0 0 0 0 0 0 -0 -0 0 0 -0
0 0 0 0 0 0 0 0 0 0 0 0 0 0 0 0 0 0 0 0 0 0 0 0 0 0 0 0 -0 -0 0 0
0 0 0 0 0 0 0 0 0 0 0 0 0 0 0 0 0 0 0 0 0 0 0 0 0 0 0 0 0 -0 0 0
0 0 0 0 0 0 0 0 0 0 0 0 0 0 0 0 0 0 0 0 0 0 0 0 0 0 0 0 0 -0 -0 -0
0 0 0 0 0 0 0 0 0 0 0 0 0 0 0 0 0 0 0 0 0 0 0 0 0 0 0 0 0 0 -0 -0
0 0 0 0 0 0 0 0 0 0 0 0 0 0 0 0 0 0 0 0 0 0 0 0 0 0 0 0 0 0 -0 -0
Wind_Speed_500mb
20 19 16 15 13 9 5 3 4 6 8 12 16 20 22 25 27 28 30 31 33 36 37 38 40 42 45 48 52 52 51 50
23 18 14 15 12 9 7 6 4 5 9 13 17 20 23 25 26 28 30 33 34 36 37 38 39 40 42 45 49 50 51 51
26 23 19 13 8 7 6 2 4 7 10 11 13 16 19 24 28 30 33 34 36 36 37 38 39 39 41 40 39 35 29 34
21 21 17 13 8 4 2 2 4 6 7 11 16 20 24 27 33 35 37 37 39 40 42 41 36 36 30 35 30 37 44 44
22 21 18 15 13 8 6 4 2 7 12 17 21 24 28 30 30 33 39 40 40 42 37 36 43 43 40 39 41 41 35 35
22 20 19 18 13 10 6 5 5 9 15 20 24 26 31 32 31 32 37 41 44 44 39 45 45 44 43 44 43 41 36 39
21 19 19 16 14 9 6 5 7 11 18 23 26 28 33 33 33 33 37 42 43 45 41 48 46 42 42 41 43 43 43 42
21 18 15 13 10 8 6 6 9 11 17 23 26 29 33 34 32 33 38 45 45 42 45 45 45 42 44 46 48 46 43 42
25 19 16 13 11 9 6 3 6 10 16 22 30 33 36 35 34 36 42 44 45 46 48 47 44 44 44 45 46 45 41 41
23 21 20 19 15 11 6 2 5 11 20 29 33 35 33 32 32 34 37 38 39 42 44 46 43 43 45 48 51 44 40 38
26 23 22 19 15 9 4 2 8 15 20 25 28 29 30 31 30 35 37 33 34 39 41 41 41 40 47 49 43 42 34 28
28 25 24 20 15 10 4 6 9 13 19 25 29 31 31 31 31 36 36 32 34 39 43 42 37 41 51 45 44 26 21 18
30 28 28 22 15 11 7 4 6 13 18 23 25 26 26 27 27 29 30 28 32 34 36 39 34 42 39 49 30 19 10 19
33 32 31 23 17 15 14 8 1 8 16 20 20 23 23 24 26 26 27 25 26 30 34 35 28 36 40 30 29 13 19 22
37 33 31 29 23 15 9 2 4 7 9 10 24 24 25 25 24 24 23 22 22 26 28 30 30 28 31 27 19 17 61 16
39 35 32 28 23 19 16 11 6 6 3 12 15 20 21 23 21 20 20 18 21 23 24 26 27 26 23 23 18 25 18 34
40 36 30 29 26 19 14 11 7 2 3 7 10 15 20 19 18 17 17 17 20 22 22 24 23 23 25 26 24 22 9 29
41 37 34 31 26 20 17 12 10 6 2 3 1 6 9 17 16 17 18 17 18 18 20 20 20 22 25 25 25 26 31 24
43 40 37 31 24 19 15 12 9 6 5 5 4 3 6 14 14 15 16 17 17 18 18 18 21 21 25 25 23 24 27 28
45 42 37 30 25 21 16 9 7 6 7 3 2 3 2 9 12 14 15 16 17 16 16 18 20 20 23 25 23 24 26 30
Wind_Direction_500mb
160 175 185 190 186 186 198 241 278 302 319 326 327 326 322 320 316 316 315 313 311 309 306 303 299 294 288 283 279 278 278 277
165 156 167 184 178 189 213 239 270 315 333 331 325 323 325 324 328 330 328 326 323 320 317 314 309 302 294 289 284 281 278 279
171 177 184 183 184 190 213 251 325 333 328 327 331 337 343 339 335 333 329 327 325 323 321 317 312 307 304 298 295 297 289 271
175 179 179 163 166 155 85 357 307 310 328 345 353 349 345 341 336 332 333 332 332 332 330 328 327 319 317 308 299 284 283 277
170 179 169 147 170 143 150 197 318 350 6 2 358 352 348 348 344 341 339 336 337 336 336 329 326 323 318 312 303 300 291 281
159 176 182 180 157 152 138 112 43 10 1 358 356 353 351 350 345 347 343 340 339 339 336 330 330 328 322 318 312 306 296 283
158 173 178 171 148 156 137 83 38 6 355 355 355 350 349 348 345 344 340 339 336 336 333 331 330 327 322 318 313 307 302 296
162 164 161 155 148 124 95 81 28 14 351 350 345 341 340 342 341 341 336 339 336 336 332 333 330 325 322 318 314 310 306 299
176 174 167 159 152 139 134 68 31 0 341 335 338 339 338 340 337 335 334 334 334 333 332 330 328 325 322 317 314 309 304 299
163 167 170 170 169 165 160 102 8 351 346 340 339 336 334 334 331 330 333 335 334 333 334 333 331 329 321 320 315 310 305 302
164 164 171 172 169 165 159 56 17 1 348 338 338 338 340 342 339 337 341 344 341 340 338 338 335 332 325 322 318 309 307 309
164 165 176 175 172 162 135 42 9 356 345 345 344 340 339 338 337 335 338 341 338 336 339 341 344 332 333 330 323 324 311 299
168 176 179 173 155 148 133 127 23 359 346 342 335 334 335 333 332 333 335 339 337 338 341 346 346 343 343 349 350 325 313 272
173 179 177 162 157 166 154 142 207 326 328 327 335 336 339 341 342 344 341 347 343 345 347 348 349 356 350 347 349 16 310 358
173 169 171 168 175 167 164 172 330 26 357 346 330 339 344 347 348 350 351 357 348 350 350 351 353 359 13 10 344 331 333 335
174 170 173 179 165 176 169 171 162 233 311 315 323 340 345 348 350 352 351 360 349 356 352 357 356 355 5 2 340 316 321 320
174 170 170 185 186 182 169 164 166 169 337 341 337 343 343 342 342 349 356 5 358 357 357 354 354 357 356 352 354 352 328 316
175 170 180 189 192 186 183 171 154 169 188 231 352 351 357 341 352 358 355 357 0 358 355 350 356 357 356 353 351 350 332 332
176 174 186 187 186 185 180 176 175 192 165 189 139 50 13 331 354 355 358 359 7 6 358 358 358 0 359 352 346 341 334 334
176 176 183 182 185 185 183 188 176 196 182 182 140 81 294 334 351 351 360 5 15 12 2 8 3 2 357 356 354 344 340 342
Wind_Speed_850mb
20 19 16 15 13 9 5 3 4 6 8 12 16 20 22 25 27 28 30 31 33 36 37 38 40 42 45 48 52 52 51 50
23 18 14 15 12 9 7 6 4 5 9 13 17 20 23 25 26 28 30 33 34 36 37 38 39 40 42 45 49 50 51 51
26 23 19 13 8 7 6 2 4 7 10 11 13 16 19 24 28 30 33 34 36 36 37 38 39 39 41 40 39 35 29 34
21 21 17 13 8 4 2 2 4 6 7 11 16 20 24 27 33 35 37 37 39 40 42 41 36 36 30 35 30 37 44 44
22 21 18 15 13 8 6 4 2 7 12 17 21 24 28 30 30 33 39 40 40 42 37 36 43 43 40 39 41 41 35 35
22 20 19 18 13 10 6 5 5 9 15 20 24 26 31 32 31 32 37 41 44 44 39 45 45 44 43 44 43 41 36 39
21 19 19 16 14 9 6 5 7 11 18 23 26 28 33 33 33 33 37 42 43 45 41 48 46 42 42 41 43 43 43 42
21 18 15 13 10 8 6 6 9 11 17 23 26 29 33 34 32 33 38 45 45 42 45 45 45 42 44 46 48 46 43 42
25 19 16 13 11 9 6 3 6 10 16 22 30 33 36 35 34 36 42 44 45 46 48 47 44 44 44 45 46 45 41 41
23 21 20 19 15 11 6 2 5 11 20 29 33 35 33 32 32 34 37 38 39 42 44 46 43 43 45 48 51 44 40 38
26 23 22 19 15 9 4 2 8 15 20 25 28 29 30 31 30 35 37 33 34 39 41 41 41 40 47 49 43 42 34 28
28 25 24 20 15 10 4 6 9 13 19 25 29 31 31 31 31 36 36 32 34 39 43 42 37 41 51 45 44 26 21 18
30 28 28 22 15 11 7 4 6 13 18 23 25 26 26 27 27 29 30 28 32 34 36 39 34 42 39 49 30 19 10 19
33 32 31 23 17 15 14 8 1 8 16 20 20 23 23 24 26 26 27 25 26 30 34 35 28 36 40 30 29 13 19 22
37 33 31 29 23 15 9 2 4 7 9 10 24 24 25 25 24 24 23 22 22 26 28 30 30 28 31 27 19 17 61 16
39 35 32 28 23 19 16 11 6 6 3 12 15 20 21 23 21 20 20 18 21 23 24 26 27 26 23 23 18 25 18 34
40 36 30 29 26 19 14 11 7 2 3 7 10 15 20 19 18 17 17 17 20 22 22 24 23 23 25 26 24 22 9 29
41 37 34 31 26 20 17 12 10 6 2 3 1 6 9 17 16 17 18 17 18 18 20 20 20 22 25 25 25 26 31 24
43 40 37 31 24 19 15 12 9 6 5 5 4 3 6 14 14 15 16 17 17 18 18 18 21 21 25 25 23 24 27 28
45 42 37 30 25 21 16 9 7 6 7 3 2 3 2 9 12 14 15 16 17 16 16 18 20 20 23 25 23 24 26 30
Wind_Direction_850mb
160 175 185 190 186 186 198 241 278 302 319 326 327 326 322 320 316 316 315 313 311 309 306 303 299 294 288 283 279 278 278 277
165 156 167 184 178 189 213 239 270 315 333 331 325 323 325 324 328 330 328 326 323 320 317 314 309 302 294 289 284 281 278 279
171 177 184 183 184 190 213 251 325 333 328 327 331 337 343 339 335 333 329 327 325 323 321 317 312 307 304 298 295 297 289 271
175 179 179 163 166 155 85 357 307 310 328 345 353 349 345 341 336 332 333 332 332 332 330 328 327 319 317 308 299 284 283 277
170 179 169 147 170 143 150 197 318 350 6 2 358 352 348 348 344 341 339 336 337 336 336 329 326 323 318 312 303 300 291 281
159 176 182 180 157 152 138 112 43 10 1 358 356 353 351 350 345 347 343 340 339 339 336 330 330 328 322 318 312 306 296 283
158 173 178 171 148 156 137 83 38 6 355 355 355 350 349 348 345 344 340 339 336 336 333 331 330 327 322 318 313 307 302 296
162 164 161 155 148 124 95 81 28 14 351 350 345 341 340 342 341 341 336 339 336 336 332 333 330 325 322 318 314 310 306 299
176 174 167 159 152 139 134 68 31 0 341 335 338 339 338 340 337 335 334 334 334 333 332 330 328 325 322 317 314 309 304 299
163 167 170 170 169 165 160 102 8 351 346 340 339 336 334 334 331 330 333 335 334 333 334 333 331 329 321 320 315 310 305 302
164 164 171 172 169 165 159 56 17 1 348 338 338 338 340 342 339 337 341 344 341 340 338 338 335 332 325 322 318 309 307 309
164 165 176 175 172 162 135 42 9 356 345 345 344 340 339 338 337 335 338 341 338 336 339 341 344 332 333 330 323 324 311 299
168 176 179 173 155 148 133 127 23 359 346 342 335 334 335 333 332 333 335 339 337 338 341 346 346 343 343 349 350 325 313 272
173 179 177 162 157 166 154 142 207 326 328 327 335 336 339 341 342 344 341 347 343 345 347 348 349 356 350 347 349 16 310 358
173 169 171 168 175 167 164 172 330 26 357 346 330 339 344 347 348 350 351 357 348 350 350 351 353 359 13 10 344 331 333 335
174 170 173 179 165 176 169 171 162 233 311 315 323 340 345 348 350 352 351 360 349 356 352 357 356 355 5 2 340 316 321 320
174 170 170 185 186 182 169 164 166 169 337 341 337 343 343 342 342 349 356 5 358 357 357 354 354 357 356 352 354 352 328 316
175 170 180 189 192 186 183 171 154 169 188 231 352 351 357 341 352 358 355 357 0 358 355 350 356 357 356 353 351 350 332 332
176 174 186 187 186 185 180 176 175 192 165 189 139 50 13 331 354 355 358 359 7 6 358 358 358 0 359 352 346 341 334 334
176 176 183 182 185 185 183 188 176 196 182 182 140 81 294 334 351 351 360 5 15 12 2 8 3 2 357 356 354 344 340 342